Orbital Elements
Epoch 2024 Oct. 17.0 TT = JDT 2460600.5
T 2025 May 27.39232 TT Rudenko
q 1.6752390 (2000.0) P Q
n 0.14124563 Peri. 325.94310 +0.56234313 -0.77799854
a 3.6516238 Node 88.26943 +0.80731275 +0.44323675
e 0.5412345 Incl. 16.27726 +0.17893107 +0.44526336
P 6.98
>From 1295 observations 2010 Oct. 7-2024 July 25, mean residual 0".7.
|